Find Starlink 32424

NORAD ID: 61548 Int'l Des: 2024-184 Owner: SPXS Country: US Constellation: starlink operational
LEOCIRCULAR

实时位置

正在加载3D地球...

关于 Starlink 32424

正在加载描述...

即将过境

Passes for default location (London). Set your location on the main map for personalized predictions.

高度历史

Loading altitude history...

两行轨道根数

1 61548U 24184S 26126.35831968 .00000093 00000-0 15262-4 0 9995
2 61548 53.1604 106.2644 0001245 81.2891 278.8250 15.30187305 87335
Epoch: May 6, 2026 • Age: 23 hours

当前状态

高度 483.6 km
速度 7.62 km/s
星下点 -26.54°S, 33.61°W
发射日期 Oct 15, 2024
运行时间 1.5 years
类型 internet

技术详情

分类 Payload
质量 730.00 kg
干质量 700.00 kg
总质量 730.00 kg
长度 0.30 m
直径 4.10 m
跨度 29.00 m
形状 Box + pan
制造商 SPXS
平台类型 Starlink V2M
阶段状态 In Orbit
所有者/国家 SPXS/US

Most Searched